FENGYUN 1C DEB, 35165

Orbit data source: Space-Track

FENGYUN 1C DEB, 35165 is space debris in SSO originally from a launch on Mon, 10 May 1999 UTC launched from the Taiyaun Space Center, China (TSC). Fengyun 1C debris stems from the Chinese weather satellite Fengyun-1C, which was intentionally destroyed by a Chinese anti-satellite missile in 2007. This event dramatically increased the amount of space debris, with thousands of trackable fragments posing hazards to satellites and human spaceflight. The Fengyun 1C debris cloud has become a focal point in discussions about space sustainability and the need for international regulations to prevent the creation of new debris.

Loading next visibility...
Identifier
35165, 1999-025DMV
Orbit
SSO
Country
Flag of CNCN / PRC
Related business
Manufacturer
Unknown
Mission
Spacecraft
Bus & Motor
Unknown
Mass
Unknown
Launch date (UTC)
1999-05-10 (27 years ago)
Launch vehicle
Unknown
Launch site
Taiyaun Space Center, China (TSC)
Object type
Payload
Rocket body
Debris
Shape & HBR
Unknown shape, 0.1 m
Radar Cross Section
Small (<0.1 m²)

Expand to show TLE details & history
Last TLE update: 6 days ago

TLE from 6 days ago
0 FENGYUN 1C DEB
1 35165U 99025DMV 26203.22019331  .00003416  00000-0  11880-2 0  9993
2 35165  98.8750 306.2435 0022725 127.6322 232.6929 14.35999208928971
Epoch: 2026-07-22T05:17Z
TLE epoch observation values (Epoch: 2026-07-22T05:17:04.701Z)
Latitude
-0.00011°
Longitude
-73.00473°
Altitude
784.552 km
Speed
7.456 km/s
True Right ascension
20h 24m 58s
True Declination
0° 00' 00"
Sunlit
Object was in full shadow at epoch
Visualization orbit readout
Latitude
Unknown
Longitude
Unknown
Altitude
Unknown
Speed
Unknown
Apparent Right ascension
Unknown
Apparent Declination
Unknown
Sunlit
N/A
Visualization observer readout
Local Sidereal Time
11:47:29
Azimuth
Unknown
Elevation
Unknown
Doppler factor
Unknown
Orbital elements
Apogee altitude
785.135 km
Perigee altitude
752.651 km
Semi-major axis
7,147.03 km
Eccentricity
0.00227
Inclination
98.875°
RAAN
306.2435°
Arg. of periapsis
127.6322°
True anomaly
232.48613°
Mean anomaly
232.6929°
Eccentric anomaly
232.58948°
Mean motion
3.59215 °/min
Orbital period
100.22 mins
BSTAR
0.001188
Loading maneuver chart data...
Computing Atmospheric mass density...
Loading historical data...
Loading historical data...
Loading historical data...
Loading historical data...
Loading historical data...
Loading historical data...
Loading historical data...

Documentation

Showing up to 5 results
|